Location: Unspecified
(0.0000°N, 0.0000°E)
Time: 19:10:46
(UTC+00:00)

COSMOS 2496 - Pass Details

Date: 17 May 2026
Orbit: 1478 x 1511 km, 82.4° (Epoch: 10 June)

Event Time Altitude Azimuth Distance (km) Brightness Sun altitude
Rises 03:28:24 0° 24° (NNE) 4,583 ? -34.6°
Reaches altitude 10° 03:32:04 10° 38° (NE) 3,606 ? -33.8°
Maximum altitude 03:38:29 23° 87° (E) 2,725 ? -32.3°
Drops below altitude 10° 03:44:54 10° 135° (SE) 3,625 ? -30.8°
Sets 03:48:33 0° 149° (SSE) 4,612 ? -30.0°
